Volver al catálogo

JO-97

JY1SAT

ActivoRadioaficionadoSSO
NORAD 43803·PAYLOAD·🇯🇴 Jordan

Lanzado Dec 3, 2018 desde Vandenberg Space Force Base

Loading…

Próximos Pases (próximas 24 horas)

TLE

ActualizadoSource: AMSAT

Época: Sep 14, 2026, 09:42 UTC

1 43803U 18099AX  26257.40456493  .00013172  00000-0  37443-3 0  9990
2 43803  97.4033 320.6747 0004078 322.4190  37.6768 15.36281570427317

Sigue JO-97 en tiempo real con AllMySat

Download on the App Store